When you browse on this site, cookies collect data to enhance your experience and personalize the content and advertising you see.
Visit our Privacy Policy to learn more. By continuing to use the site, you agree to this use of cookies and data.
  • In Austria
  • List of Countries
  • For 7 days
  • Water Temperature
  • Satellite Maps
  • Weather Map
  • News
  • Weather Widgets
  • user-avatar
    Login

    Hourly Weather Qala i Naw

    Today, 26 June, Wednesday

    Time Temperature Precipitation Wind Pressure Humidity
    00:00 +23°C° 0 mm 1 mps 679 mmHg 18%
    01:00 +23°C° 0 mm 1 mps 679 mmHg 19%
    02:00 +20°C° 0 mm 0 mps 679 mmHg 19%
    03:00 +19°C° 0 mm 0 mps 678 mmHg 20%
    04:00 +19°C° 0 mm 0 mps 678 mmHg 21%
    05:00 +21°C° 0 mm 0 mps 679 mmHg 18%
    06:00 +26°C° 0 mm 1 mps 680 mmHg 15%
    07:00 +28°C° 0 mm 1 mps 681 mmHg 12%
    08:00 +30°C° 0 mm 2 mps 681 mmHg 11%
    09:00 +33°C° 0 mm 4 mps 681 mmHg 11%
    10:00 +35°C° 0 mm 6 mps 681 mmHg 10%
    11:00 +36°C° 0 mm 7 mps 681 mmHg 10%
    12:00 +38°C° 0 mm 7 mps 681 mmHg 9%
    13:00 +39°C° 0 mm 8 mps 681 mmHg 9%
    14:00 +38°C° 0 mm 8 mps 681 mmHg 9%
    15:00 +38°C° 0 mm 8 mps 680 mmHg 8%
    16:00 +38°C° 0 mm 8 mps 680 mmHg 8%
    17:00 +35°C° 0 mm 7 mps 680 mmHg 9%
    18:00 +33°C° 0 mm 5 mps 680 mmHg 9%
    19:00 +30°C° 0 mm 4 mps 680 mmHg 10%
    20:00 +28°C° 0 mm 3 mps 680 mmHg 12%
    21:00 +26°C° 0 mm 2 mps 679 mmHg 13%
    22:00 +24°C° 0 mm 1 mps 679 mmHg 15%
    23:00 +24°C° 0 mm 1 mps 679 mmHg 15%

    Tomorrow, 27 June, Thursday

    Time Temperature Precipitation Wind Pressure Humidity
    00:00 +23°C° 0 mm 1 mps 678 mmHg 16%
    01:00 +22°C° 0 mm 1 mps 678 mmHg 17%
    02:00 +22°C° 0 mm 1 mps 678 mmHg 18%
    03:00 +21°C° 0 mm 1 mps 678 mmHg 19%
    04:00 +21°C° 0 mm 1 mps 677 mmHg 20%
    05:00 +23°C° 0 mm 1 mps 678 mmHg 17%
    06:00 +26°C° 0 mm 1 mps 679 mmHg 14%
    07:00 +29°C° 0 mm 1 mps 680 mmHg 12%
    08:00 +30°C° 0 mm 2 mps 680 mmHg 11%
    09:00 +33°C° 0 mm 3 mps 680 mmHg 11%
    10:00 +35°C° 0 mm 4 mps 680 mmHg 10%
    11:00 +36°C° 0 mm 5 mps 680 mmHg 10%
    12:00 +38°C° 0 mm 7 mps 679 mmHg 10%
    13:00 +39°C° 0 mm 8 mps 679 mmHg 9%
    14:00 +39°C° 0 mm 8 mps 679 mmHg 9%
    15:00 +39°C° 0 mm 8 mps 679 mmHg 10%
    16:00 +39°C° 0 mm 8 mps 678 mmHg 10%
    17:00 +36°C° 0 mm 7 mps 678 mmHg 11%
    18:00 +35°C° 0 mm 6 mps 678 mmHg 12%
    19:00 +33°C° 0 mm 5 mps 678 mmHg 13%
    20:00 +30°C° 0 mm 4 mps 678 mmHg 15%
    21:00 +28°C° 0 mm 3 mps 678 mmHg 17%
    22:00 +27°C° 0 mm 2 mps 677 mmHg 19%
    23:00 +26°C° 0 mm 1 mps 677 mmHg 20%

    Day after tomorrow, 28 June, Friday

    Time Temperature Precipitation Wind Pressure Humidity
    00:00 +25°C° 0 mm 1 mps 677 mmHg 21%
    01:00 +24°C° 0 mm 1 mps 676 mmHg 22%
    02:00 +24°C° 0 mm 1 mps 676 mmHg 23%
    03:00 +23°C° 0 mm 1 mps 676 mmHg 23%
    04:00 +22°C° 0 mm 1 mps 676 mmHg 24%
    05:00 +25°C° 0 mm 1 mps 676 mmHg 21%
    06:00 +27°C° 0 mm 1 mps 677 mmHg 18%
    07:00 +30°C° 0 mm 1 mps 678 mmHg 15%
    08:00 +31°C° 0 mm 2 mps 678 mmHg 14%
    09:00 +34°C° 0 mm 4 mps 678 mmHg 13%
    10:00 +36°C° 0 mm 6 mps 678 mmHg 13%
    11:00 +38°C° 0 mm 6 mps 678 mmHg 12%
    12:00 +39°C° 0 mm 7 mps 678 mmHg 12%
    13:00 +40°C° 0 mm 7 mps 678 mmHg 11%
    14:00 +40°C° 0 mm 8 mps 678 mmHg 12%
    15:00 +40°C° 0 mm 9 mps 677 mmHg 12%
    16:00 +39°C° 0 mm 10 mps 677 mmHg 13%
    17:00 +38°C° 0 mm 9 mps 677 mmHg 16%
    18:00 +35°C° 0 mm 8 mps 677 mmHg 19%
    19:00 +33°C° 0 mm 7 mps 677 mmHg 21%
    20:00 +30°C° 0 mm 5 mps 677 mmHg 25%
    21:00 +29°C° 0 mm 4 mps 677 mmHg 28%
    22:00 +27°C° 0 mm 2 mps 677 mmHg 31%
    23:00 +26°C° 0 mm 2 mps 677 mmHg 32%

    29 June, Saturday

    Time Temperature Precipitation Wind Pressure Humidity
    00:00 +26°C° 0 mm 2 mps 676 mmHg 33%
    01:00 +25°C° 0 mm 1 mps 676 mmHg 35%
    02:00 +25°C° 0 mm 1 mps 676 mmHg 35%
    03:00 +25°C° 0 mm 1 mps 676 mmHg 36%
    04:00 +24°C° 0 mm 1 mps 675 mmHg 36%
    05:00 +26°C° 0 mm 1 mps 676 mmHg 32%
    06:00 +28°C° 0 mm 2 mps 677 mmHg 28%
    07:00 +30°C° 0 mm 2 mps 677 mmHg 24%
    08:00 +33°C° 0 mm 3 mps 677 mmHg 22%
    09:00 +34°C° 0 mm 4 mps 677 mmHg 20%
    10:00 +36°C° 0 mm 5 mps 678 mmHg 18%
    11:00 +38°C° 0 mm 6 mps 677 mmHg 16%
    12:00 +39°C° 0 mm 6 mps 677 mmHg 14%
    13:00 +40°C° 0 mm 6 mps 677 mmHg 12%
    14:00 +40°C° 0 mm 6 mps 677 mmHg 12%
    15:00 +40°C° 0 mm 7 mps 677 mmHg 12%
    16:00 +40°C° 0 mm 7 mps 676 mmHg 11%
    17:00 +38°C° 0 mm 6 mps 676 mmHg 12%
    18:00 +35°C° 0 mm 5 mps 676 mmHg 13%
    19:00 +33°C° 0 mm 4 mps 676 mmHg 14%
    20:00 +31°C° 0 mm 3 mps 676 mmHg 18%
    21:00 +29°C° 0 mm 2 mps 676 mmHg 20%
    22:00 +27°C° 0 mm 1 mps 676 mmHg 23%
    23:00 +27°C° 0 mm 1 mps 675 mmHg 23%

    30 June, Sunday

    Time Temperature Precipitation Wind Pressure Humidity
    00:00 +26°C° 0 mm 1 mps 675 mmHg 24%
    01:00 +25°C° 0 mm 1 mps 675 mmHg 24%
    02:00 +23°C° 0 mm 0 mps 674 mmHg 25%
    03:00 +22°C° 0 mm 0 mps 674 mmHg 26%
    04:00 +21°C° 0 mm 0 mps 674 mmHg 27%
    05:00 +24°C° 0 mm 0 mps 675 mmHg 23%
    06:00 +27°C° 0 mm 0 mps 676 mmHg 19%
    07:00 +30°C° 0 mm 0 mps 676 mmHg 16%
    08:00 +33°C° 0 mm 1 mps 677 mmHg 14%
    09:00 +36°C° 0 mm 2 mps 677 mmHg 12%
    10:00 +37°C° 0 mm 2 mps 677 mmHg 10%
    11:00 +40°C° 0 mm 4 mps 677 mmHg 9%
    12:00 +41°C° 0 mm 5 mps 677 mmHg 8%
    13:00 +42°C° 0 mm 6 mps 677 mmHg 7%
    14:00 +42°C° 0 mm 6 mps 677 mmHg 7%
    15:00 +44°C° 0 mm 7 mps 676 mmHg 7%
    16:00 +44°C° 0 mm 8 mps 676 mmHg 7%
    17:00 +41°C° 0 mm 7 mps 676 mmHg 8%
    18:00 +39°C° 0 mm 6 mps 676 mmHg 9%
    19:00 +36°C° 0 mm 5 mps 676 mmHg 10%
    20:00 +34°C° 0 mm 4 mps 676 mmHg 13%
    21:00 +31°C° 0 mm 3 mps 676 mmHg 15%
    22:00 +29°C° 0 mm 2 mps 676 mmHg 17%
    23:00 +28°C° 0 mm 1 mps 676 mmHg 18%

    1 July, Monday

    Time Temperature Precipitation Wind Pressure Humidity
    00:00 +27°C° 0 mm 1 mps 675 mmHg 19%
    01:00 +26°C° 0 mm 1 mps 675 mmHg 20%
    02:00 +26°C° 0 mm 1 mps 675 mmHg 21%
    03:00 +23°C° 0 mm 0 mps 675 mmHg 21%
    04:00 +23°C° 0 mm 0 mps 675 mmHg 22%
    05:00 +25°C° 0 mm 0 mps 675 mmHg 19%
    06:00 +30°C° 0 mm 1 mps 676 mmHg 16%
    07:00 +33°C° 0 mm 1 mps 677 mmHg 13%
    08:00 +36°C° 0 mm 2 mps 677 mmHg 12%
    09:00 +37°C° 0 mm 3 mps 678 mmHg 11%
    10:00 +40°C° 0 mm 4 mps 678 mmHg 10%
    11:00 +42°C° 0 mm 5 mps 678 mmHg 9%
    12:00 +44°C° 0 mm 7 mps 678 mmHg 8%
    13:00 +46°C° 0 mm 8 mps 678 mmHg 8%
    14:00 +46°C° 0 mm 8 mps 677 mmHg 8%
    15:00 +46°C° 0 mm 8 mps 677 mmHg 8%
    16:00 +47°C° 0 mm 9 mps 677 mmHg 8%
    17:00 +44°C° 0 mm 8 mps 677 mmHg 9%
    18:00 +41°C° 0 mm 7 mps 677 mmHg 10%
    19:00 +39°C° 0 mm 6 mps 677 mmHg 12%
    20:00 +36°C° 0 mm 5 mps 677 mmHg 13%
    21:00 +34°C° 0 mm 3 mps 677 mmHg 15%
    22:00 +32°C° 0 mm 2 mps 677 mmHg 16%
    23:00 +31°C° 0 mm 2 mps 677 mmHg 17%
    Show more